When you browse on this site, cookies collect data to enhance your experience and personalize the content and advertising you see.
Visit our Privacy Policy to learn more. By continuing to use the site, you agree to this use of cookies and data.
EN

Hourly Weather Huancavelica

Today, 6 July, Monday

Time Temperature Precipitation Wind Pressure Humidity
00:00 +5°C° 0 mm 1 mps 464 mmHg 94%
01:00 +4°C° 0 mm 0 mps 464 mmHg 92%
02:00 +4°C° 0 mm 0 mps 464 mmHg 91%
03:00 +5°C° 0 mm 1 mps 463 mmHg 89%
04:00 +5°C° 0 mm 1 mps 463 mmHg 88%
05:00 +5°C° 0 mm 1 mps 463 mmHg 88%
06:00 +5°C° 0 mm 1 mps 463 mmHg 88%
07:00 +5°C° 0 mm 1 mps 464 mmHg 85%
08:00 +7°C° 0 mm 1 mps 465 mmHg 79%
09:00 +8°C° 0 mm 1 mps 466 mmHg 73%
10:00 +9°C° 0 mm 1 mps 467 mmHg 67%
11:00 +9°C° 0.3 mm 2 mps 467 mmHg 63%
12:00 +10°C° 0.3 mm 2 mps 467 mmHg 59%
13:00 +12°C° 0.3 mm 2 mps 467 mmHg 54%
14:00 +10°C° 1 mm 2 mps 467 mmHg 57%
15:00 +10°C° 1 mm 2 mps 467 mmHg 60%
16:00 +10°C° 1 mm 2 mps 466 mmHg 63%
17:00 +8°C° 0.6 mm 2 mps 465 mmHg 69%
18:00 +8°C° 0.6 mm 1 mps 465 mmHg 75%
19:00 +6°C° 0.6 mm 1 mps 464 mmHg 82%
20:00 +6°C° 0.1 mm 1 mps 464 mmHg 85%
21:00 +4°C° 0.1 mm 0 mps 464 mmHg 87%
22:00 +3°C° 0.1 mm 0 mps 463 mmHg 90%
23:00 +3°C° 0 mm 0 mps 463 mmHg 90%

Tomorrow, 7 July, Tuesday

Time Temperature Precipitation Wind Pressure Humidity
00:00 +2°C° 0 mm 0 mps 462 mmHg 91%
01:00 +2°C° 0 mm 0 mps 462 mmHg 91%
02:00 +2°C° 0 mm 0 mps 461 mmHg 89%
03:00 +2°C° 0 mm 0 mps 461 mmHg 87%
04:00 +2°C° 0 mm 0 mps 461 mmHg 85%
05:00 +2°C° 0 mm 0 mps 462 mmHg 84%
06:00 +2°C° 0 mm 0 mps 462 mmHg 83%
07:00 +3°C° 0 mm 0 mps 463 mmHg 82%
08:00 +5°C° 0 mm 0 mps 464 mmHg 72%
09:00 +8°C° 0 mm 1 mps 466 mmHg 63%
10:00 +10°C° 0 mm 1 mps 467 mmHg 53%
11:00 +11°C° 0 mm 1 mps 467 mmHg 49%
12:00 +12°C° 0 mm 2 mps 468 mmHg 45%
13:00 +13°C° 0 mm 2 mps 468 mmHg 40%
14:00 +13°C° 0.1 mm 2 mps 467 mmHg 41%
15:00 +13°C° 0.1 mm 2 mps 467 mmHg 41%
16:00 +13°C° 0.1 mm 2 mps 467 mmHg 42%
17:00 +9°C° 0.1 mm 2 mps 465 mmHg 52%
18:00 +8°C° 0.1 mm 1 mps 464 mmHg 63%
19:00 +6°C° 0.1 mm 1 mps 463 mmHg 74%
20:00 +5°C° 0 mm 1 mps 462 mmHg 75%
21:00 +4°C° 0 mm 1 mps 462 mmHg 76%
22:00 +4°C° 0 mm 1 mps 462 mmHg 77%
23:00 +3°C° 0 mm 1 mps 462 mmHg 77%

Day after tomorrow, 8 July, Wednesday

Time Temperature Precipitation Wind Pressure Humidity
00:00 +2°C° 0 mm 0 mps 461 mmHg 76%
01:00 +2°C° 0 mm 0 mps 461 mmHg 76%
02:00 +2°C° 0 mm 0 mps 461 mmHg 77%
03:00 +1°C° 0 mm 0 mps 460 mmHg 77%
04:00 +1°C° 0 mm 0 mps 460 mmHg 77%
05:00 +2°C° 0 mm 0 mps 461 mmHg 75%
06:00 +2°C° 0 mm 0 mps 462 mmHg 73%
07:00 +3°C° 0 mm 0 mps 462 mmHg 71%
08:00 +6°C° 0 mm 1 mps 464 mmHg 63%
09:00 +8°C° 0 mm 1 mps 465 mmHg 55%
10:00 +10°C° 0 mm 1 mps 466 mmHg 47%
11:00 +10°C° 0 mm 2 mps 467 mmHg 43%
12:00 +12°C° 0 mm 2 mps 467 mmHg 38%
13:00 +13°C° 0 mm 2 mps 468 mmHg 34%
14:00 +13°C° 0 mm 2 mps 467 mmHg 37%
15:00 +11°C° 0 mm 3 mps 467 mmHg 41%
16:00 +11°C° 0 mm 3 mps 466 mmHg 44%
17:00 +9°C° 0.6 mm 2 mps 465 mmHg 56%
18:00 +7°C° 0.6 mm 2 mps 464 mmHg 68%
19:00 +5°C° 0.6 mm 1 mps 462 mmHg 80%
20:00 +5°C° 0.2 mm 1 mps 462 mmHg 81%
21:00 +4°C° 0.2 mm 1 mps 462 mmHg 82%
22:00 +4°C° 0.2 mm 1 mps 462 mmHg 83%
23:00 +3°C° 0 mm 1 mps 462 mmHg 83%

9 July, Thursday

Time Temperature Precipitation Wind Pressure Humidity
00:00 +2°C° 0 mm 0 mps 462 mmHg 83%
01:00 +2°C° 0 mm 0 mps 461 mmHg 83%
02:00 +2°C° 0 mm 0 mps 461 mmHg 84%
03:00 +2°C° 0 mm 0 mps 461 mmHg 85%
04:00 +2°C° 0 mm 0 mps 461 mmHg 85%
05:00 +2°C° 0 mm 0 mps 461 mmHg 83%
06:00 +3°C° 0 mm 0 mps 462 mmHg 82%
07:00 +3°C° 0 mm 0 mps 462 mmHg 80%
08:00 +6°C° 0 mm 1 mps 464 mmHg 73%
09:00 +7°C° 0 mm 1 mps 465 mmHg 65%
10:00 +8°C° 0 mm 2 mps 466 mmHg 58%
11:00 +8°C° 0.1 mm 2 mps 466 mmHg 58%
12:00 +9°C° 0.1 mm 2 mps 466 mmHg 58%
13:00 +9°C° 0.1 mm 2 mps 466 mmHg 59%
14:00 +8°C° 0.8 mm 2 mps 465 mmHg 65%
15:00 +8°C° 0.8 mm 2 mps 465 mmHg 71%
16:00 +7°C° 0.8 mm 2 mps 464 mmHg 77%
17:00 +6°C° 1.4 mm 2 mps 464 mmHg 81%
18:00 +6°C° 1.4 mm 1 mps 463 mmHg 85%
19:00 +4°C° 1.4 mm 1 mps 463 mmHg 90%
20:00 +4°C° 0.6 mm 1 mps 463 mmHg 90%
21:00 +4°C° 0.6 mm 1 mps 463 mmHg 91%
22:00 +4°C° 0.6 mm 1 mps 463 mmHg 91%
23:00 +4°C° 0 mm 1 mps 463 mmHg 92%

10 July, Friday

Time Temperature Precipitation Wind Pressure Humidity
00:00 +4°C° 0 mm 1 mps 463 mmHg 92%
01:00 +4°C° 0 mm 1 mps 463 mmHg 92%
02:00 +3°C° 0 mm 1 mps 462 mmHg 92%
03:00 +3°C° 0 mm 1 mps 462 mmHg 92%
04:00 +2°C° 0 mm 1 mps 461 mmHg 92%
05:00 +2°C° 0 mm 0 mps 462 mmHg 88%
06:00 +2°C° 0 mm 0 mps 462 mmHg 84%
07:00 +2°C° 0 mm 0 mps 463 mmHg 80%
08:00 +5°C° 0 mm 1 mps 464 mmHg 70%
09:00 +7°C° 0 mm 1 mps 465 mmHg 59%
10:00 +7°C° 0 mm 2 mps 467 mmHg 48%
11:00 +8°C° 0 mm 2 mps 467 mmHg 46%
12:00 +9°C° 0 mm 2 mps 467 mmHg 43%
13:00 +10°C° 0 mm 2 mps 467 mmHg 41%
14:00 +10°C° 0.1 mm 2 mps 467 mmHg 46%
15:00 +9°C° 0.1 mm 2 mps 466 mmHg 52%
16:00 +9°C° 0.1 mm 2 mps 466 mmHg 58%
17:00 +7°C° 0.3 mm 2 mps 465 mmHg 67%
18:00 +7°C° 0.3 mm 1 mps 464 mmHg 77%
19:00 +6°C° 0.3 mm 1 mps 464 mmHg 87%
20:00 +5°C° 0 mm 1 mps 464 mmHg 88%
21:00 +4°C° 0 mm 0 mps 464 mmHg 89%
22:00 +3°C° 0 mm 0 mps 463 mmHg 90%
23:00 +3°C° 0 mm 0 mps 463 mmHg 91%

11 July, Saturday

Time Temperature Precipitation Wind Pressure Humidity
00:00 +2°C° 0 mm 0 mps 462 mmHg 92%
01:00 +1°C° 0 mm 0 mps 462 mmHg 93%
02:00 +1°C° 0 mm 0 mps 461 mmHg 93%
03:00 +1°C° 0 mm 0 mps 461 mmHg 93%
04:00 +1°C° 0 mm 0 mps 460 mmHg 93%
05:00 +1°C° 0 mm 0 mps 461 mmHg 91%
06:00 +2°C° 0 mm 0 mps 462 mmHg 90%
07:00 +3°C° 0 mm 0 mps 463 mmHg 88%
08:00 +6°C° 0 mm 1 mps 464 mmHg 76%
09:00 +8°C° 0 mm 1 mps 466 mmHg 63%
10:00 +9°C° 0 mm 2 mps 467 mmHg 51%
11:00 +10°C° 0 mm 2 mps 467 mmHg 49%
12:00 +11°C° 0 mm 3 mps 467 mmHg 47%
13:00 +12°C° 0 mm 3 mps 468 mmHg 45%
14:00 +11°C° 0.2 mm 3 mps 467 mmHg 49%
15:00 +10°C° 0.2 mm 2 mps 466 mmHg 53%
16:00 +10°C° 0.2 mm 2 mps 466 mmHg 56%
17:00 +9°C° 0.3 mm 1 mps 465 mmHg 67%
18:00 +8°C° 0.3 mm 1 mps 464 mmHg 77%
19:00 +6°C° 0.3 mm 1 mps 464 mmHg 88%
20:00 +6°C° 0 mm 1 mps 463 mmHg 89%
21:00 +5°C° 0 mm 1 mps 463 mmHg 90%
22:00 +5°C° 0 mm 1 mps 463 mmHg 91%
23:00 +3°C° 0 mm 0 mps 462 mmHg 91%
Show more